Location: *
(45.9500°N, 9.0833°E)
Time: 20:49:23
(UTC+00:00)

Cosmos 2278 Rocket - Pass Details

Date: 03 March 2021
Orbit: 842 x 845 km, 71.0° (Epoch: 20 April)

Event Time Altitude Azimuth Distance (km) Brightness Sun altitude
Rises 20:23:53 0° 332° (NNW) 3,414 6.1 -33.0°
Reaches altitude 10° 20:26:20 10° 331° (NNW) 2,474 5.2 -33.4°
Enters shadow 20:30:13 45° 320° (NW) 1,146 3.1 -33.9°
